CAPE
0 0 0 0 0 3 1 4 10 17 20 62 92 63 334 545 484 112 36 0 180 192 270 395 323 252 7 237 267 409 313 340 94 52 80 3 0 0 0 0 0 0 23 254
0 0 0 0 0 8 18 16 36 50 33 8 0 0 0 193 135 238 455 334 268 125 164 391 232 335 298 182 286 176 201 405 320 166 111 54 1 1 0 0 0 0 7 141
0 0 0 0 0 1 3 2 43 14 12 25 8 2 0 0 28 28 268 408 188 198 129 339 204 346 454 359 330 499 421 210 203 111 64 26 0 0 0 0 1 25 49 85
0 0 1 0 0 7 26 15 36 58 6 0 1 47 0 0 2 6 138 201 155 143 155 208 274 279 351 416 423 336 345 336 197 58 36 6 0 0 4 1 2 54 115 146
0 19 6 36 0 21 9 2 46 0 0 0 0 0 0 0 1 0 8 57 110 135 79 37 65 74 76 98 136 148 194 307 296 301 267 142 20 0 0 1 8 44 165 215
45 1 0 70 78 38 89 0 1 0 0 0 0 0 0 0 16 4 40 104 27 4 0 0 0 0 5 19 0 33 66 79 171 222 231 269 121 5 22 5 27 24 116 123
60 10 30 111 217 248 2 9 36 0 0 0 0 0 0 4 36 90 77 42 2 3 0 0 0 0 0 0 0 5 2 0 0 19 138 141 133 118 63 15 0 2 42 25
21 0 0 280 413 94 7 221 189 8 0 0 1 11 33 45 47 49 51 11 0 0 0 0 0 0 0 0 0 0 0 1 0 0 0 0 10 38 42 70 58 36 31 44
12 9 129 71 283 337 362 241 215 105 24 0 49 45 52 68 59 60 60 2 0 0 0 0 0 0 0 0 0 0 0 0 0 0 0 0 0 0 4 29 32 27 1 15
5 72 69 169 44 183 246 193 97 57 51 45 57 40 82 42 55 57 27 9 3 7 6 0 0 0 0 0 0 0 0 0 0 0 0 0 0 0 0 2 0 0 0 0
0 0 0 176 322 352 104 215 50 35 48 12 37 90 62 55 64 33 24 7 9 10 8 3 0 0 0 0 0 0 0 0 0 0 0 0 0 0 0 0 0 0 0 0
0 43 68 393 212 89 0 2 54 46 35 29 52 83 96 74 65 49 30 10 10 10 11 0 0 0 0 0 0 0 0 0 0 0 0 0 0 0 0 0 0 0 0 0
7 113 94 505 229 92 0 0 1 1 38 48 183 183 151 84 40 19 9 2 0 2 3 5 0 0 0 0 0 0 0 0 0 0 0 0 0 0 0 0 0 0 0 0
12 394 483 376 193 145 29 39 45 17 86 89 216 145 80 19 33 9 10 0 0 5 1 0 0 0 0 0 0 0 0 0 0 0 0 0 0 0 0 0 0 6 0 0
166 297 351 312 281 133 140 62 18 40 88 117 233 124 35 22 23 18 19 9 5 1 0 0 0 0 0 0 0 0 0 0 0 0 0 0 0 0 0 0 0 6 9 1
215 192 294 298 51 0 17 11 49 61 99 71 115 68 32 21 4 15 15 16 9 0 0 0 0 0 0 0 0 0 0 0 0 0 0 0 3 23 30 34 39 41 25 9
251 191 147 57 0 0 0 0 31 51 73 39 18 6 26 8 6 8 6 1 20 9 0 0 0 0 0 0 0 0 0 0 0 0 0 0 8 14 45 61 63 57 16 0
113 160 50 0 1 7 3 0 7 2 54 37 26 8 22 22 17 12 13 24 33 3 0 0 0 0 0 0 0 0 0 0 0 0 0 0 6 0 0 0 6 13 1 0
1 85 107 0 16 0 0 7 0 27 84 124 108 125 85 66 59 37 24 21 14 4 9 0 0 0 0 0 0 0 0 0 0 0 0 0 2 13 14 3 7 16 0 1
0 3 45 33 11 67 61 22 41 117 82 4 3 0 32 27 24 14 17 10 1 9 12 0 0 0 0 0 0 0 0 0 0 0 0 0 1 0 16 14 13 18 18 0
1 0 6 27 65 55 5 95 97 48 15 36 10 0 12 10 6 10 8 6 5 23 27 0 0 0 0 0 0 0 0 0 0 0 0 0 0 0 9 32 19 21 3 0
104 105 46 62 83 62 44 7 22 29 2 0 3 4 1 9 23 21 12 4 29 33 16 1 0 0 0 0 0 0 0 0 0 0 0 0 0 0 4 31 38 47 9 0
1 4 12 66 93 115 72 46 36 33 10 19 18 6 6 46 69 49 33 21 37 59 19 1 2 3 0 0 0 0 0 0 0 0 0 0 0 0 0 22 37 99 45 7
0 0 0 0 0 6 0 23 20 62 59 17 41 23 44 25 19 18 27 35 24 18 0 0 0 0 0 0 0 0 0 0 0 0 0 0 0 0 0 2 24 136 87 29
0 0 0 0 26 17 0 2 21 20 10 3 6 10 12 25 26 6 15 28 12 3 9 11 2 0 0 0 0 0 1 0 0 0 0 0 0 2 0 0 32 80 81 55
0 0 0 1 0 0 3 6 1 0 4 3 8 4 6 7 2 0 0 0 0 0 0 0 0 0 0 0 0 0 0 0 0 0 0 6 5 3 0 0 4 4 17 28
0 1 4 4 7 11 4 7 1 0 0 0 0 6 10 4 0 0 0 0 0 0 0 0 0 0 0 0 0 7 7 11 2 0 2 9 30 4 4 0 0 0 0 0
CIN
-0 -0 -0 -0 -0 -2 -4 -34 -26 -42 -52 -80 -152 -213 -176 -124 -95 -188 -131 -0 -11 -13 -31 -5 -7 -33 -203 -151 -226 -243 -174 -129 -221 -381 -264 -264 -0 -0 -0 -19 -0 -0 -118 -52
-0 -0 -0 -0 -0 -24 -39 -58 -63 -60 -60 -139 -2 -0 -0 -167 -179 -95 -51 -62 -9 -48 -68 -49 -65 -39 -78 -143 -240 -335 -273 -220 -191 -189 -262 -272 -0 -0 -0 -0 -0 -0 -35 -47
-0 -0 -0 -0 -0 -18 -42 -102 -101 -79 -133 -134 -102 -44 -0 -12 -223 -169 -60 -8 -37 -63 -60 -69 -155 -131 -92 -105 -133 -127 -133 -210 -239 -312 -270 -297 -0 -0 -0 -0 -0 -48 -68 -63
-0 -0 -29 -0 -0 -29 -50 -71 -87 -68 -55 -0 -24 -146 -0 -0 -107 -94 -37 -4 -15 -17 -29 -55 -74 -103 -61 -90 -138 -76 -69 -103 -212 -318 -312 -462 -0 -0 -0 -1 -4 -27 -40 -38
-0 -53 -33 -33 -0 -69 -70 -9 -73 -0 -0 -0 -0 -0 -0 -0 -23 -15 -65 -8 -1 -3 -34 -85 -119 -159 -218 -239 -223 -236 -188 -111 -114 -112 -137 -223 -334 -0 -0 -5 -22 -68 -39 -42
-38 -12 -0 -43 -81 -137 -86 -0 -92 -0 -0 -0 -0 -0 -0 -0 -6 -45 -12 -7 -35 -46 -0 -0 -0 -0 -288 -301 -0 -316 -291 -266 -200 -167 -132 -92 -175 -273 -130 -68 -57 -77 -83 -60
-35 -30 -34 -62 -48 -96 -24 -18 -75 -0 -0 -0 -0 -0 -0 -29 -14 -17 -14 -20 -66 -8 -0 -0 -0 -0 -0 -0 -0 -192 -119 -0 -0 -237 -164 -141 -95 -64 -77 -108 -0 -103 -88 -96
-63 -0 -0 -47 -17 -17 -48 -58 -41 -63 -0 -0 -64 -74 -32 -44 -16 -10 -16 -54 -38 -0 -0 -0 -0 -0 -0 -0 -0 -0 -0 -86 -0 -0 -0 -0 -280 -158 -124 -89 -78 -93 -66 -63
-48 -43 -101 -100 -41 -32 -47 -39 -45 -53 -95 -0 -93 -54 -38 -23 -30 -25 -15 -24 -0 -0 -0 -0 -0 -0 -0 -0 -0 -0 -0 -0 -0 -0 -0 -0 -0 -0 -119 -121 -125 -67 -35 -85
-85 -87 -54 -84 -105 -102 -72 -60 -69 -96 -85 -95 -77 -60 -38 -36 -12 -16 -23 -36 -16 -16 -18 -0 -0 -0 -0 -0 -0 -0 -0 -0 -0 -0 -0 -0 -0 -0 -0 -166 -7 -0 -0 -0
-0 -0 -0 -117 -77 -65 -121 -79 -105 -145 -91 -99 -79 -29 -24 -16 -15 -17 -31 -25 -16 -10 -11 -17 -0 -0 -0 -0 -0 -0 -0 -0 -0 -0 -0 -0 -0 -0 -0 -0 -0 -0 -0 -0
-0 -80 -84 -40 -72 -129 -0 -37 -121 -120 -97 -91 -68 -28 -17 -18 -24 -17 -37 -25 -12 -11 -16 -0 -0 -0 -0 -0 -0 -0 -0 -0 -0 -0 -0 -0 -0 -0 -0 -0 -0 -0 -0 -0
-43 -42 -78 -49 -100 -117 -0 -0 -81 -102 -101 -48 -14 -19 -20 -37 -24 -24 -28 -24 -0 -4 -10 -12 -0 -0 -0 -0 -0 -0 -0 -0 -0 -0 -0 -0 -0 -0 -0 -0 -0 -0 -0 -0
-56 -69 -69 -94 -42 -104 -115 -98 -79 -74 -53 -46 -16 -13 -34 -30 -30 -21 -14 -14 -0 -21 -17 -0 -0 -0 -0 -0 -0 -0 -0 -0 -0 -0 -0 -0 -0 -0 -0 -0 -0 -25 -0 -0
-64 -73 -89 -158 -142 -136 -125 -118 -79 -62 -51 -34 -21 -18 -22 -16 -17 -18 -28 -37 -33 -13 -0 -0 -0 -0 -0 -0 -0 -0 -0 -0 -0 -0 -0 -0 -0 -0 -0 -0 -0 -39 -46 -17
-139 -153 -138 -104 -148 -0 -173 -100 -47 -72 -54 -40 -26 -16 -13 -17 -14 -20 -34 -27 -19 -0 -0 -0 -0 -0 -0 -0 -0 -0 -0 -0 -0 -0 -0 -0 -29 -29 -36 -55 -47 -37 -42 -52
-85 -106 -126 -131 -0 -0 -4 -11 -72 -66 -58 -50 -27 -14 -41 -27 -25 -20 -21 -4 -30 -30 -3 -0 -0 -0 -0 -0 -0 -0 -0 -0 -0 -0 -0 -0 -35 -28 -30 -30 -26 -42 -57 -0
-200 -156 -151 -7 -66 -227 -155 -0 -75 -41 -82 -71 -53 -25 -42 -66 -28 -11 -15 -147 -123 -33 -0 -0 -0 -0 -0 -0 -0 -0 -0 -0 -0 -0 -0 -0 -31 -0 -0 -0 -16 -31 -8 -0
-79 -146 -159 -0 -127 -0 -0 -34 -43 -104 -81 -48 -39 -27 -23 -32 -33 -81 -70 -122 -70 -10 -23 -0 -0 -0 -0 -0 -0 -0 -0 -0 -0 -0 -0 -0 -32 -44 -35 -30 -35 -42 -0 -10
-0 -17 -120 -86 -78 -66 -58 -56 -69 -60 -53 -45 -28 -0 -16 -22 -18 -17 -18 -15 -8 -24 -47 -0 -0 -0 -0 -0 -0 -0 -0 -0 -0 -0 -0 -0 -26 -0 -57 -47 -57 -70 -68 -0
-6 -0 -95 -91 -64 -45 -7 -68 -64 -48 -36 -24 -14 -0 -6 -12 -15 -26 -19 -19 -23 -40 -39 -0 -0 -0 -0 -0 -0 -0 -0 -0 -0 -0 -0 -0 -0 -56 -54 -60 -51 -73 -54 -0
-81 -69 -72 -71 -56 -45 -59 -18 -44 -47 -6 -0 -15 -27 -7 -18 -19 -21 -30 -25 -40 -60 -48 -54 -0 -0 -0 -0 -0 -0 -0 -0 -0 -0 -0 -0 -0 -0 -55 -53 -50 -54 -68 -0
-42 -39 -97 -121 -69 -39 -50 -48 -22 -29 -24 -23 -22 -27 -29 -19 -24 -20 -19 -27 -38 -32 -32 -42 -46 -54 -0 -0 -0 -0 -0 -0 -0 -0 -0 -0 -0 -0 -4 -37 -42 -78 -58 -72
-0 -0 -0 -0 -8 -78 -5 -59 -64 -46 -42 -42 -38 -43 -29 -28 -33 -58 -52 -37 -35 -33 -5 -0 -0 -0 -0 -0 -0 -0 -0 -0 -0 -0 -0 -0 -0 -0 -0 -51 -56 -52 -48 -72
-0 -0 -0 -13 -80 -47 -63 -80 -73 -41 -52 -56 -47 -57 -54 -58 -36 -57 -50 -53 -61 -52 -52 -58 -41 -0 -0 -0 -0 -12 -115 -28 -0 -0 -0 -0 -0 -83 -87 -17 -61 -64 -40 -56
-0 -0 -17 -30 -0 -0 -60 -76 -55 -0 -45 -23 -56 -76 -72 -93 -71 -0 -0 -0 -0 -0 -0 -0 -0 -0 -0 -0 -0 -0 -3 -33 -55 -0 -49 -67 -90 -82 -85 -89 -124 -58 -116 -87
-11 -37 -23 -24 -30 -33 -38 -32 -9 -0 -19 -0 -0 -61 -71 -89 -0 -0 -0 -0 -0 -0 -0 -0 -0 -0 -0 -0 -21 -42 -60 -63 -64 -26 -22 -30 -13 -30 -77 -0 -0 -0 -0 -0
Wind_Speed
26 29 29 31 34 33 29 26 27 27 26 28 29 30 31 32 32 30 30 23 25 23 21 20 15 13 16 13 11 12 12 10 10 7 5 9 8 2 11 14 15 20 37 30
33 28 28 31 30 28 26 27 27 28 29 27 28 31 30 32 34 34 32 27 23 24 23 20 16 13 12 11 11 11 10 8 5 4 5 7 6 8 13 7 8 13 26 25
28 27 29 29 26 26 25 24 26 30 27 29 28 28 28 31 32 33 29 21 20 22 22 19 16 12 11 12 13 14 13 10 8 8 5 5 6 8 10 11 15 15 33 17
28 28 29 25 23 22 25 23 24 26 29 29 24 30 27 30 30 29 24 17 17 16 16 15 13 11 9 11 12 13 14 15 15 14 12 11 5 9 4 5 11 10 10 10
24 24 25 23 22 25 27 30 23 27 27 30 32 26 23 28 26 23 20 15 13 11 11 12 12 11 12 13 14 16 16 17 17 17 16 16 13 11 5 9 11 16 12 4
20 27 23 21 21 17 20 28 19 20 23 25 26 33 31 30 23 14 12 11 10 10 11 14 13 13 13 15 16 16 17 18 19 20 20 19 14 10 12 9 13 14 16 11
25 21 26 19 19 17 25 25 15 16 18 19 24 21 18 10 7 7 13 13 10 10 12 11 11 13 14 16 16 17 19 19 19 19 19 19 17 15 13 15 18 18 21 20
22 26 27 20 22 22 20 21 14 14 17 18 16 22 17 11 13 9 12 12 12 11 9 9 12 15 16 17 18 19 19 19 19 19 19 19 19 18 17 16 18 20 22 24
18 19 25 22 24 24 21 19 13 11 13 14 17 13 10 13 12 16 10 9 9 10 10 12 15 17 18 19 19 19 20 20 20 18 19 20 20 19 18 16 16 17 17 18
19 16 18 17 16 7 13 17 13 10 8 10 21 15 6 14 14 11 10 11 11 12 13 15 17 18 19 20 21 20 20 21 21 20 20 21 19 19 19 17 16 17 18 18
23 24 23 18 12 13 14 14 12 11 7 10 14 11 11 11 12 12 12 12 12 15 15 17 19 19 20 22 22 22 22 22 23 22 22 22 21 17 15 16 16 18 18 18
28 17 18 14 11 15 17 9 11 14 17 11 12 11 11 11 11 11 12 12 14 15 17 18 18 20 20 21 23 23 22 22 24 24 24 23 24 25 14 14 17 17 18 19
26 23 11 12 11 14 17 14 10 17 18 14 9 10 10 13 13 11 11 13 16 17 17 18 20 21 18 21 23 23 22 23 24 24 25 25 25 23 21 19 18 18 18 18
28 15 15 11 17 12 13 13 16 17 16 17 11 12 12 12 12 11 11 15 16 17 18 19 20 18 19 22 24 23 22 22 24 25 25 24 25 23 19 19 22 21 20 21
18 9 17 15 17 19 18 16 18 19 17 16 10 10 11 12 13 15 14 15 17 18 19 20 20 19 22 25 23 22 21 22 25 25 23 23 25 25 21 19 18 17 20 20
15 15 13 12 15 18 21 21 16 14 15 16 18 13 12 11 12 14 16 17 18 20 21 20 20 21 24 24 23 23 22 23 25 23 24 25 26 26 24 21 17 19 21 21
13 15 11 10 9 12 24 25 21 19 19 20 19 14 11 12 13 15 18 20 21 22 23 20 20 22 25 23 22 22 22 23 25 23 23 24 22 24 23 23 22 21 22 22
19 11 9 4 8 8 8 24 13 20 22 23 22 14 11 11 14 14 19 22 21 21 20 18 20 23 24 22 23 23 23 25 26 25 24 25 23 22 21 23 21 18 19 21
19 17 11 6 8 12 13 7 9 25 23 22 5 18 19 18 19 17 18 20 21 21 20 16 21 21 24 23 22 24 23 26 27 28 29 25 20 20 19 21 20 18 18 20
13 11 9 7 11 15 14 9 24 17 18 20 16 18 16 15 17 21 20 19 19 21 21 15 20 24 27 27 22 23 25 28 29 28 30 27 17 19 17 18 20 20 20 20
17 12 12 17 9 6 16 22 22 14 20 11 15 16 16 19 20 22 24 25 28 15 11 15 19 25 24 21 23 25 29 32 30 28 29 31 19 17 16 17 17 18 19 19
14 13 13 20 19 17 18 12 7 8 12 15 17 17 19 20 22 23 21 25 27 11 12 16 20 22 23 24 26 28 31 32 29 28 28 29 21 19 20 16 15 16 17 19
15 15 15 14 11 9 12 15 11 14 16 18 19 21 21 22 23 22 25 28 26 17 16 21 24 26 26 26 28 30 32 31 28 28 29 30 24 20 19 16 11 12 14 17
16 17 15 13 11 11 14 21 19 18 19 18 18 18 19 21 23 23 25 25 23 24 24 28 29 31 32 30 28 30 32 31 31 32 33 28 24 23 24 22 16 11 11 15
17 17 16 12 11 12 13 18 17 13 14 16 19 21 23 23 23 24 24 25 26 25 25 26 28 29 29 29 28 27 28 29 31 32 33 31 26 27 26 25 19 11 13 16
18 16 15 15 13 14 17 17 17 15 17 19 21 23 22 22 23 25 26 27 28 28 28 29 30 31 31 30 29 30 31 32 31 29 32 33 34 27 24 24 25 24 26 25
17 17 18 17 17 15 14 17 15 19 21 23 23 23 23 25 27 28 28 29 29 29 30 30 30 30 29 29 29 31 30 30 30 29 30 31 32 29 26 24 22 23 24 27
Wind_Direction
326 326 326 324 324 328 331 333 330 332 332 332 334 337 333 324 324 330 336 352 349 0 351 345 350 359 8 328 331 306 291 309 313 211 195 185 179 181 164 175 154 173 193 251
318 323 324 324 327 330 332 331 330 330 326 334 334 331 331 320 314 313 318 333 353 10 341 336 343 350 334 338 347 355 5 35 72 68 81 122 123 170 192 205 210 174 185 194
313 323 324 323 326 329 331 334 333 328 333 336 335 340 336 324 321 309 306 337 342 358 354 358 344 325 323 320 334 342 342 10 25 23 41 84 130 156 182 193 269 207 201 211
312 321 315 329 337 336 331 336 341 333 330 337 339 336 337 329 315 302 300 321 328 347 346 349 345 323 336 346 348 350 349 344 340 355 6 4 76 144 147 238 269 273 254 261
309 314 321 324 331 331 331 325 338 334 339 342 336 347 349 337 317 296 280 304 328 343 347 354 345 340 348 332 333 339 340 347 346 344 341 339 338 325 323 285 286 279 286 233
316 315 319 332 339 351 349 330 347 354 351 359 355 353 2 329 303 311 305 327 329 337 338 355 338 329 341 335 334 331 332 337 340 342 343 343 345 329 312 304 297 291 292 309
308 309 314 331 341 357 326 329 1 6 4 16 359 20 42 76 282 323 37 26 351 352 1 342 335 345 349 342 337 335 347 350 348 347 344 342 344 346 330 310 300 297 285 287
315 313 317 337 329 327 345 340 357 3 359 5 29 353 41 114 141 260 10 5 15 8 342 328 347 355 349 346 340 348 352 353 360 3 2 350 342 338 342 332 313 301 292 279
321 325 323 330 328 328 332 337 352 358 5 10 358 66 119 124 218 33 334 321 321 336 319 335 344 346 346 340 342 346 350 356 348 349 350 351 352 348 341 342 331 323 323 315
331 336 332 341 336 29 10 344 350 1 26 56 330 321 83 82 14 353 333 346 312 312 321 329 335 335 340 344 340 341 343 341 342 344 334 323 335 350 345 336 333 332 328 323
318 317 323 333 354 5 9 356 353 12 62 37 13 40 66 33 351 298 288 328 332 336 333 323 327 330 331 340 338 332 329 327 326 329 329 334 339 346 344 340 334 332 336 330
305 336 340 345 16 10 7 27 352 345 337 13 33 36 11 345 351 341 22 17 346 337 330 325 325 328 336 342 343 335 328 328 321 317 323 331 327 317 345 344 339 338 335 332
306 316 346 352 21 19 5 19 13 334 318 335 42 24 356 334 331 343 353 347 342 341 348 342 326 322 347 337 335 328 324 323 318 317 318 320 323 329 327 330 331 332 335 332
303 318 324 346 338 2 360 349 338 321 320 297 12 331 304 2 344 343 354 338 347 346 339 343 339 350 344 333 329 327 319 319 321 314 318 330 326 326 337 336 328 330 331 326
321 335 319 330 332 325 324 309 294 291 306 287 339 360 329 329 318 308 323 336 343 337 332 333 337 340 328 321 325 316 317 320 325 334 348 352 345 340 340 339 336 338 335 337
333 340 342 333 325 315 305 292 306 318 326 297 251 335 335 1 10 346 324 326 324 326 321 330 336 331 320 326 328 325 319 327 330 340 344 343 343 347 349 353 352 341 335 333
335 331 345 349 340 345 281 273 290 273 282 264 266 322 355 6 348 349 318 310 308 308 315 333 330 326 322 328 330 330 328 335 336 341 343 345 348 346 347 348 345 340 335 333
326 334 345 36 1 355 346 293 307 269 262 247 239 305 20 38 342 334 323 319 324 324 334 343 334 330 326 327 328 327 329 329 330 334 336 341 351 353 351 350 346 345 339 333
328 326 339 51 28 337 325 343 253 199 229 241 262 285 299 317 325 339 344 340 332 329 336 350 340 337 331 333 333 328 332 326 322 325 329 335 343 348 349 353 355 352 348 342
301 327 6 9 346 304 299 295 207 255 253 270 318 314 332 345 343 332 334 343 342 333 329 352 340 337 330 325 334 332 329 325 321 327 331 334 339 342 345 346 347 348 347 340
233 346 68 108 315 336 236 236 258 311 260 345 331 327 331 328 330 325 323 326 316 348 4 353 343 336 344 349 342 332 324 319 319 322 327 322 326 331 334 336 338 341 346 346
308 322 163 230 219 275 278 137 37 7 348 341 333 333 332 326 330 327 345 339 331 354 348 343 342 340 338 337 337 331 324 320 316 319 325 326 327 321 325 326 327 329 336 339
353 340 335 332 332 16 321 306 352 331 320 313 325 324 331 333 336 339 336 334 338 351 343 336 333 335 334 332 330 329 328 324 319 320 322 321 323 329 327 324 321 324 327 334
331 323 328 352 360 355 319 258 294 306 315 325 342 348 353 349 349 349 344 339 340 338 336 334 332 331 330 329 328 327 327 325 319 317 317 321 321 323 323 326 325 317 319 330
342 321 317 350 18 27 17 340 326 357 7 359 354 348 344 347 350 349 351 351 348 345 344 342 341 340 338 336 332 329 328 326 325 322 319 316 315 317 320 321 322 318 310 316
357 10 10 2 350 341 331 336 337 325 344 345 348 352 359 360 359 356 351 349 348 346 344 342 341 341 338 335 332 329 325 324 316 314 318 316 310 315 315 317 319 318 311 309
10 1 360 355 352 5 357 331 25 345 344 346 354 0 2 358 355 353 352 353 352 352 349 348 346 345 343 341 338 334 333 331 328 320 313 308 306 315 313 314 317 318 314 312